This is the latest recevied weather packets stored in our database for station/object M0TUM-1. If no packets are shown the sender has not sent any weather packets the latest 10 day(s).
| Time | Temp. | Humidity | Pressure | Rain* | Wind** | Luminosity | Snow |
|---|---|---|---|---|---|---|---|
| 1777557221 | 17.78° C | 29% | 1024.9 hPa | 0 mm | - | 556 W/m² | - |
| 1777556612 | 17.78° C | 31% | 1024.9 hPa | 0 mm | - | 583 W/m² | - |
| 1777555395 | 17.22° C | 34% | 1025 hPa | 0 mm | - | 559 W/m² | - |
| 1777553271 | 17.78° C | 38% | 1025.1 hPa | 0 mm | - | 611 W/m² | - |
| 1777552968 | 17.78° C | 36% | 1025.2 hPa | 0 mm | - | 608 W/m² | - |
| 1777552359 | 17.78° C | 38% | 1024.9 hPa | 0 mm | - | 615 W/m² | - |
| 1777551753 | 18.33° C | 37% | 1025.1 hPa | 0 mm | - | 640 W/m² | - |
| 1777550845 | 17.78° C | 39% | 1025.1 hPa | 0 mm | - | 628 W/m² | - |
| 1777550541 | 18.33° C | 39% | 1025.2 hPa | 0 mm | - | 631 W/m² | - |
| 1777550237 | 17.78° C | 38% | 1025 hPa | 0 mm | - | 626 W/m² | - |
| 1777549630 | 17.78° C | 39% | 1025.2 hPa | 0 mm | - | 615 W/m² | - |
| 1777548719 | 17.22° C | 40% | 1025.3 hPa | 0 mm | - | 604 W/m² | - |
| 1777548416 | 17.78° C | 40% | 1025.3 hPa | 0 mm | - | 626 W/m² | - |
| 1777548113 | 17.78° C | 41% | 1025.1 hPa | 0 mm | - | 638 W/m² | - |
| 1777547808 | 17.22° C | 41% | 1025.4 hPa | 0 mm | - | 655 W/m² | - |
| 1777547203 | 17.22° C | 44% | 1025.5 hPa | 0 mm | - | 670 W/m² | - |
| 1777545686 | 16.67° C | 44% | 1025.7 hPa | 0 mm | - | 669 W/m² | - |
| 1777545384 | 16.67° C | 43% | 1025.7 hPa | 0 mm | - | 666 W/m² | - |
| 1777545081 | 16.67° C | 42% | 1025.8 hPa | 0 mm | - | 679 W/m² | - |
| 1777544778 | 16.67° C | 44% | 1026 hPa | 0 mm | - | 695 W/m² | - |
| 1777544473 | 16.67° C | 44% | 1026 hPa | 0 mm | - | 683 W/m² | - |
| 1777544170 | 16.67° C | 43% | 1025.9 hPa | 0 mm | - | 671 W/m² | - |
| 1777543868 | 16.67° C | 44% | 1025.9 hPa | 0 mm | - | 651 W/m² | - |
| 1777543563 | 16.67° C | 45% | 1026.1 hPa | 0 mm | - | 642 W/m² | - |
| 1777543260 | 16.11° C | 47% | 1026.1 hPa | 0 mm | - | 657 W/m² | - |
* Rain latest hour (hover to see other rain measurements)
** Current wind speed in m/s (hover to see current wind gust speed)